User: anonymous   Login
Location: La Trinit�
(48.1620°N, 3.4512°W)
Time: 08:16:05
(UTC+00:00)
Language:

Meteor 1-18 Rocket - Orbit

View from above orbital plane
View from above orbital plane
View from above satellite
View from above satellite

Ground track
Ground track

The orbit data is extracted from the following two-line orbital elements,

1 07364U 74052B   21216.78511926  .00000120  00000-0  65100-4 0  9998
2 07364  81.2329 126.2416 0049223 222.3100 137.4268 14.06043036413263
Epoch (UTC): 04 August 2021 18:50:34
Eccentricity: 0.0049223
inclination: 81.2329°
perigee height: 837 km
apogee height: 908 km
right ascension of ascending node: 126.2416°
argument of perigee: 222.3100°
revolutions per day: 14.06043036
mean anomaly at epoch: 137.4268°
orbit number at epoch: 41326

The dashed part of the orbit path shows where the satellite is in the earth's shadow,  

DLR